RH
23 17 17 18 20 23 25 29 25 17 14 14 14 12 10 9 8 17 25 33 44 39 34 42 40 36 37 36 34 31 31 33 31 30 28 26 27 29 30 31 31 29 28 34 40 42 43 42 43 44 43 40 39 41 40 36 32 31 32 32 32 32 34 35 34 36 38 37 37 36 34 36 35 35 37 36 38 41 42 44 44 46 42 36 35 35
21 16 20 25 25 26 25 26 23 17 17 16 14 11 11 11 8 15 24 31 40 35 33 46 42 33 35 35 32 30 31 32 29 28 27 25 26 28 31 32 31 30 30 34 37 39 41 41 41 42 42 40 39 40 39 36 32 32 33 33 32 34 35 36 36 39 40 38 42 41 38 38 37 36 38 37 38 41 43 45 44 44 41 36 36 36
18 17 21 26 26 26 25 23 17 14 16 13 12 11 9 11 9 12 24 31 34 29 30 43 38 25 29 34 33 32 32 32 29 26 25 25 26 28 30 32 31 30 30 30 30 32 36 38 41 41 38 38 42 42 37 35 33 32 33 34 34 35 37 41 40 41 41 38 42 44 41 41 40 37 39 41 42 42 42 44 45 46 41 36 37 37
12 19 26 29 29 24 21 22 19 16 14 9 8 8 8 11 11 9 19 25 27 31 33 38 36 24 26 35 36 34 32 31 30 28 27 26 27 28 29 31 32 31 31 29 28 28 31 34 36 37 36 38 42 43 37 34 33 33 34 35 36 36 38 43 42 40 41 41 42 45 45 44 43 41 41 41 40 40 41 41 44 46 41 37 38 38
18 27 30 28 26 20 18 21 20 14 11 12 10 8 8 11 12 8 13 18 22 35 38 32 25 20 29 39 35 32 34 34 33 32 31 30 29 30 31 32 33 33 32 30 28 26 28 30 32 33 36 39 42 43 40 36 34 34 35 37 37 37 37 41 42 37 38 42 42 41 42 41 40 40 39 37 37 40 42 43 43 41 39 41 43 43
21 27 25 23 22 19 17 15 17 15 9 12 13 12 11 11 12 10 15 19 16 23 30 22 11 12 27 36 31 30 36 37 36 36 35 32 31 32 33 33 33 34 33 32 30 28 29 30 32 35 36 39 41 41 41 38 35 35 35 37 37 37 37 39 39 37 37 40 39 38 38 37 36 36 35 36 39 42 42 44 45 42 41 40 42 49
15 20 21 20 20 19 17 12 17 19 8 8 15 17 16 16 16 15 20 22 12 13 23 19 11 12 18 22 25 33 38 36 35 37 36 33 31 32 32 32 33 34 33 33 32 31 32 32 34 37 36 37 38 41 45 40 35 36 35 36 37 36 38 39 39 40 40 39 39 41 41 39 37 35 35 36 40 41 42 45 47 46 46 42 40 47
17 17 20 20 18 16 13 10 18 19 7 8 18 19 18 18 18 17 22 21 13 15 23 20 16 15 13 16 28 37 37 38 37 36 36 34 33 33 32 32 32 33 33 33 32 31 32 32 34 36 36 36 39 46 51 42 35 35 34 35 37 36 39 40 39 41 41 39 40 42 40 39 37 36 37 38 39 40 41 43 43 43 46 46 45 45
20 13 15 17 15 11 11 14 21 18 9 13 21 20 20 21 19 21 22 19 17 17 18 18 15 14 11 16 36 43 34 33 35 34 35 34 34 35 34 34 32 33 34 32 31 30 31 31 33 35 38 41 45 53 55 44 35 35 34 35 37 37 39 40 39 40 42 43 42 40 39 38 37 37 39 38 38 39 39 39 39 40 42 43 47 47
21 20 18 13 11 11 15 20 23 18 11 16 22 21 26 28 24 24 21 17 20 19 15 16 14 12 10 8 25 40 33 27 27 27 29 30 33 35 35 36 35 35 36 34 32 31 31 31 31 36 42 47 52 58 57 45 36 34 35 38 38 37 38 40 41 41 43 44 42 40 39 40 39 39 40 38 37 37 37 37 37 39 39 39 42 45
27 36 30 21 20 18 19 24 25 23 19 19 17 15 20 23 20 20 17 15 20 19 16 18 14 12 12 7 10 22 30 28 20 20 25 27 31 34 35 37 37 36 37 36 36 34 33 33 35 42 48 50 53 60 58 47 37 34 36 39 38 36 37 40 43 43 43 44 42 41 41 41 40 40 40 38 36 36 37 38 37 38 40 40 41 43
27 32 25 28 33 24 18 23 25 25 22 18 13 9 11 14 15 16 15 15 16 13 17 22 19 17 17 11 6 12 29 35 23 16 19 23 29 34 37 39 38 38 38 37 38 36 34 35 39 45 48 48 51 59 58 46 37 36 36 39 38 37 38 40 42 44 44 44 43 43 43 41 41 42 42 39 38 38 38 38 38 39 40 41 41 43
19 20 17 23 31 25 16 14 16 18 17 14 10 9 11 10 12 13 13 15 13 11 20 24 20 21 18 12 9 11 21 30 29 23 19 20 24 30 37 40 41 42 41 41 40 37 37 37 38 40 40 43 50 58 56 44 37 37 37 38 38 37 38 40 42 44 44 43 42 43 43 42 42 43 43 41 40 39 40 40 40 41 41 41 41 42
13 15 15 15 20 22 15 7 8 11 12 11 9 10 11 8 9 13 12 15 16 14 20 23 23 25 18 11 13 12 12 20 29 32 29 28 27 29 36 41 45 48 47 46 44 41 41 40 40 40 39 41 46 52 53 43 36 37 37 37 38 38 38 40 41 43 43 42 42 42 43 43 43 42 42 42 41 42 43 43 42 42 43 42 41 41
10 11 13 13 16 19 17 14 11 10 11 14 15 13 12 9 9 13 12 15 21 22 23 27 29 27 19 14 17 17 18 25 30 35 39 41 39 37 40 43 48 51 51 50 50 48 46 44 44 46 45 43 44 48 50 43 36 35 36 36 37 37 37 39 41 42 42 41 40 41 42 43 43 43 42 42 43 45 45 45 45 44 44 43 43 43
8 9 17 21 22 20 20 23 20 14 14 17 17 13 13 14 12 17 23 26 32 35 33 33 31 23 16 16 20 21 25 33 38 43 47 49 49 49 49 50 51 53 54 54 54 52 50 49 49 49 47 45 44 48 49 42 35 35 34 34 36 36 36 38 40 40 39 39 39 40 41 43 44 44 45 44 45 46 47 47 47 45 45 44 44 45
7 10 23 24 21 22 22 23 21 15 13 14 15 15 18 21 19 24 32 34 37 36 29 26 26 21 16 16 20 24 27 32 37 43 47 47 48 52 55 55 55 56 56 55 54 52 50 51 52 51 48 43 42 46 46 39 34 33 33 33 34 35 35 36 37 38 37 38 38 40 41 42 43 45 46 46 47 47 48 48 46 44 45 45 44 44
11 11 23 24 18 23 27 23 20 20 16 12 13 17 22 26 24 25 29 31 33 30 24 23 26 24 20 17 20 25 29 33 35 40 45 46 47 51 54 56 57 58 56 53 51 50 50 51 52 50 46 41 40 42 40 36 33 32 31 31 31 32 33 34 35 36 37 38 39 40 41 43 44 46 47 48 49 49 48 47 47 46 46 46 47 49
16 10 19 28 21 22 28 22 19 23 21 14 15 19 21 21 20 22 25 25 25 28 27 28 32 31 25 21 22 25 30 34 34 36 41 43 45 50 52 54 56 56 54 52 50 48 48 50 50 48 45 40 40 41 37 33 31 30 31 31 32 32 32 34 36 37 38 39 39 41 43 44 45 46 48 49 50 50 49 47 47 47 49 51 53 56
19 10 14 28 24 19 23 20 18 22 25 21 18 20 23 19 17 21 26 22 19 24 29 30 31 27 22 23 26 29 31 31 30 30 33 38 42 47 50 53 54 54 52 50 47 45 46 47 48 47 44 39 37 38 36 32 30 30 30 32 33 34 34 35 37 38 39 40 40 42 44 45 47 48 49 50 49 49 49 48 48 50 52 55 59 61
20 11 12 21 23 20 18 19 18 17 23 27 24 28 33 28 24 24 28 30 26 22 26 34 32 21 19 26 27 25 27 27 25 25 27 32 36 40 44 45 45 44 45 44 42 40 41 44 45 45 43 38 34 34 33 31 30 29 30 31 33 34 34 35 37 39 40 40 41 44 46 47 49 50 50 49 49 50 50 50 52 55 56 57 60 63
16 11 14 17 19 18 16 22 25 20 20 24 23 27 30 30 29 24 27 41 43 32 28 33 33 21 19 25 22 19 22 22 23 26 28 28 27 28 31 33 34 34 33 34 34 35 37 39 40 41 39 35 32 32 32 31 30 29 30 32 32 33 34 35 37 39 40 41 43 46 48 49 50 49 49 49 49 50 51 52 53 55 58 60 62 65
25 15 16 17 15 16 17 23 31 29 24 22 20 21 25 30 27 18 22 36 43 44 41 38 39 30 20 21 20 21 25 24 25 29 28 25 20 20 21 23 28 30 29 29 30 31 34 36 37 36 34 32 31 31 30 30 29 29 30 32 32 33 34 36 38 40 41 43 45 48 49 49 49 48 48 49 50 51 52 53 54 55 60 64 67 67
33 18 17 19 14 15 19 21 28 30 24 22 23 24 26 32 34 30 32 32 30 38 40 38 44 35 22 24 26 25 30 30 28 28 25 22 19 17 18 19 23 27 27 28 29 31 34 35 34 33 30 30 30 29 29 29 29 30 30 31 32 33 35 37 39 41 43 45 47 49 49 48 48 48 49 51 53 54 55 56 57 59 64 67 68 69
24 15 17 21 15 15 18 19 23 28 25 20 22 26 28 41 59 57 46 36 30 33 32 34 40 29 22 32 31 26 28 26 23 24 24 23 19 16 18 20 23 25 25 27 30 32 34 34 33 31 29 29 28 28 28 28 28 30 30 31 32 34 35 38 41 43 44 46 48 49 49 49 50 50 52 54 56 58 59 59 62 65 66 67 70 73
20 19 17 19 17 16 16 16 18 22 26 24 24 33 39 51 64 51 33 34 37 36 34 35 35 24 19 27 24 20 22 21 19 20 22 23 21 20 21 21 23 26 26 28 31 32 33 32 31 30 28 28 28 27 28 28 29 30 30 32 33 35 37 40 43 45 47 48 49 49 50 52 52 53 55 58 60 61 62 65 68 68 66 68 74 75
28 26 18 14 15 15 12 13 17 19 22 26 36 46 49 55 58 42 31 37 37 36 37 34 35 33 26 22 21 20 19 18 17 16 18 20 20 22 24 23 25 27 26 28 30 30 30 29 28 28 28 28 28 28 28 29 30 30 31 32 34 37 39 42 45 48 49 50 49 50 53 54 55 55 58 61 63 66 70 72 71 68 70 75 76 72
32 29 27 23 20 17 10 11 20 21 16 21 35 43 45 56 63 53 45 39 31 34 36 28 31 39 31 21 21 21 18 16 15 14 15 16 16 18 20 21 25 27 27 28 29 28 29 28 27 27 28 28 28 29 30 30 31 31 32 33 35 39 42 46 48 50 51 51 52 53 55 56 57 59 63 67 71 75 76 73 71 72 76 78 74 69
29 28 40 42 31 22 16 14 19 20 16 18 25 25 29 49 67 68 58 40 31 35 33 24 26 31 26 20 19 19 17 16 16 16 17 17 17 18 18 20 23 24 25 27 28 29 29 28 27 27 28 29 30 30 30 31 32 33 34 37 39 42 46 49 51 52 52 53 54 55 56 59 63 67 71 75 78 78 74 71 76 80 79 77 75 72
27 31 57 62 44 30 25 23 23 27 30 32 32 26 25 36 52 62 55 38 33 36 30 25 29 28 23 21 20 19 17 18 18 19 19 19 20 21 21 23 24 23 24 26 27 28 28 28 28 28 29 30 30 31 31 31 33 34 37 40 43 46 49 51 52 52 53 55 56 58 61 66 72 75 77 78 77 73 69 72 81 84 80 79 78 76
24 39 71 68 46 36 33 29 30 34 36 35 32 29 28 30 37 47 49 42 42 44 36 32 39 39 29 23 22 20 19 20 20 19 19 19 19 21 23 24 25 25 25 26 27 28 28 29 30 30 31 32 32 32 33 34 35 37 40 43 46 50 52 52 53 53 55 57 59 64 70 74 77 77 77 76 74 71 71 76 83 83 81 81 79 81
26 36 55 48 34 32 31 31 32 31 33 37 37 30 27 31 34 38 42 43 46 52 51 50 52 46 32 23 23 21 19 19 19 18 18 17 18 21 24 25 25 26 26 26 28 29 29 30 31 31 33 34 34 35 36 38 39 42 45 48 51 53 53 53 56 57 59 63 68 73 77 77 76 75 75 74 73 75 78 81 85 86 84 81 81 87
42 36 35 32 30 27 28 31 30 30 34 39 39 32 25 24 28 31 32 33 35 42 49 51 46 36 27 25 25 22 20 20 19 18 17 17 19 21 23 24 24 25 26 26 27 29 30 30 31 33 35 36 37 38 39 41 43 46 50 52 53 54 56 57 60 63 67 72 76 78 77 75 75 75 76 75 75 80 86 89 91 90 85 84 89 96
59 45 35 31 26 25 31 31 27 32 36 28 21 21 19 18 23 28 30 29 29 33 37 38 35 30 28 27 26 25 23 21 19 17 16 19 22 23 24 25 25 26 28 28 29 31 31 31 31 33 36 38 39 40 43 46 50 52 54 55 56 57 60 62 66 70 75 78 78 77 75 75 77 78 78 78 79 85 92 95 96 90 85 89 95 97
61 46 40 37 31 31 35 32 29 32 29 20 21 24 22 22 24 27 29 29 29 32 34 34 33 30 27 25 24 23 22 20 19 19 19 21 23 25 27 28 29 31 32 32 33 33 32 33 34 35 38 40 43 46 49 53 55 56 56 57 59 62 65 69 73 77 79 79 78 77 76 78 81 81 82 82 83 88 93 96 95 88 86 92 94 91
56 49 42 38 35 33 31 29 29 27 19 18 26 29 25 24 25 30 36 33 26 28 32 35 34 29 26 24 23 22 21 20 21 21 21 22 23 24 28 29 29 31 32 32 33 32 32 34 37 38 40 43 48 51 54 56 56 58 60 61 64 67 71 76 79 79 79 79 78 78 79 82 84 84 84 85 88 93 96 98 96 89 89 96 96 90
45 47 39 36 36 32 31 31 29 27 25 23 26 28 27 24 23 29 40 38 28 28 33 34 32 28 24 24 23 21 22 25 27 25 21 20 20 22 25 26 26 27 28 28 30 31 33 36 38 41 43 47 51 53 55 57 59 61 64 66 69 72 75 79 79 79 78 78 78 81 85 88 87 85 87 90 94 97 99 99 97 94 96 100 98 92
40 39 33 36 42 37 36 41 41 38 32 28 30 31 30 31 26 25 39 44 33 27 28 27 27 26 24 25 24 23 26 35 38 31 23 21 21 21 23 24 25 27 28 29 31 34 38 41 43 45 48 51 54 56 58 61 63 65 67 70 72 75 78 79 78 78 78 78 80 86 90 90 88 89 93 97 99 99 100 100 99 98 99 100 98 95
43 41 35 39 45 43 42 46 48 46 38 35 36 32 30 35 29 26 42 45 28 20 23 24 26 27 26 27 28 30 39 48 47 36 27 25 24 24 27 27 27 30 32 33 37 41 43 46 49 52 54 56 59 62 65 66 67 69 71 73 75 78 80 80 81 81 81 82 85 91 93 92 93 96 99 100 100 100 100 100 99 100 101 100 98 95
55 49 45 49 52 50 50 51 47 43 41 41 39 32 31 32 27 35 51 43 24 23 26 25 27 29 28 30 33 38 46 50 46 37 29 27 26 27 30 31 32 35 38 41 44 48 50 53 56 59 62 64 67 69 68 67 70 76 77 77 80 83 83 83 83 83 84 87 92 96 95 93 96 101 102 101 101 100 100 100 100 102 101 98 95 95
72 62 53 57 60 57 59 62 55 46 41 39 36 32 30 30 32 42 47 36 26 28 27 25 29 30 30 33 37 40 41 38 37 35 31 30 32 33 34 37 40 44 48 50 53 56 59 62 64 66 68 70 72 72 68 70 78 82 81 83 85 85 82 81 83 84 88 93 97 99 98 96 97 101 102 102 102 101 101 101 99 99 99 98 98 99
62 67 60 61 64 61 63 68 62 48 37 33 33 30 29 34 39 39 35 30 29 29 27 28 31 31 32 35 37 38 38 35 35 37 36 38 42 44 47 50 52 54 57 61 63 65 69 72 73 73 75 74 74 71 70 77 85 85 84 86 86 82 80 81 83 86 90 96 99 100 99 98 97 99 102 104 103 101 102 101 96 94 95 94 94 94
39 48 49 54 57 55 64 71 59 40 32 32 33 32 31 34 36 34 31 30 29 29 30 32 32 32 35 39 40 42 43 43 44 44 46 48 51 55 60 60 60 62 64 68 72 74 76 80 80 80 80 77 74 73 76 84 89 87 87 88 85 81 82 82 83 86 90 94 98 99 97 93 90 93 100 104 102 101 102 100 96 96 96 93 90 90
36 32 29 37 41 39 48 55 42 27 28 30 28 28 30 31 30 29 31 32 30 30 32 34 36 37 39 44 48 50 52 53 53 53 55 58 60 63 66 65 66 69 70 74 79 80 82 86 86 84 82 78 75 77 81 85 89 90 90 89 86 84 84 82 83 87 91 94 98 100 98 94 91 95 101 103 102 102 102 98 98 100 100 99 96 90
34 29 21 27 32 29 29 32 28 23 23 23 22 24 28 28 26 25 28 32 33 33 35 40 43 43 44 48 53 57 58 59 60 60 61 64 65 66 67 69 71 74 76 79 83 84 86 89 88 85 84 80 78 80 82 84 89 92 92 89 87 87 85 83 86 91 93 97 102 103 101 98 96 97 101 101 101 103 103 100 101 100 97 96 93 86
32 30 24 24 29 28 24 22 23 23 20 20 22 24 25 26 26 27 32 35 37 38 40 44 47 48 49 52 56 61 63 61 63 65 65 66 67 67 69 72 74 77 81 84 85 86 88 90 89 88 88 87 83 82 82 83 86 90 90 89 89 89 87 87 91 95 97 101 104 103 103 103 101 100 99 98 99 101 102 101 101 100 97 92 86 83
30 29 26 24 26 32 31 24 23 24 24 26 27 26 26 28 29 32 36 39 40 42 43 45 47 50 50 53 58 64 65 65 68 71 70 71 74 74 74 76 78 79 83 86 87 89 90 91 91 90 91 92 89 85 83 83 84 86 88 90 91 91 90 92 97 100 102 103 104 103 103 104 105 104 102 100 99 101 102 101 101 101 99 92 85 81
28 26 27 27 29 32 31 25 24 27 28 29 29 29 30 33 35 37 39 41 42 44 44 46 49 52 53 55 60 66 69 71 72 75 77 78 80 79 79 81 82 83 85 87 89 91 92 93 93 91 91 93 92 88 86 85 85 86 88 91 93 94 95 99 102 103 103 103 102 101 101 101 102 102 101 100 100 101 101 100 102 102 98 92 87 84
29 27 28 34 37 37 33 29 32 39 40 35 31 32 34 36 40 42 42 42 45 47 49 51 52 54 57 59 62 69 76 76 74 77 83 84 84 83 83 84 86 86 87 90 93 94 94 94 94 94 95 95 93 91 90 89 88 89 91 94 97 98 101 103 103 102 101 101 100 101 103 103 102 102 101 100 100 101 101 100 100 100 100 97 95 93
31 30 34 42 48 48 43 37 41 51 52 42 35 36 39 39 43 47 48 49 52 53 55 58 60 60 61 63 65 72 79 80 79 82 87 87 86 86 86 87 90 89 89 94 97 97 97 98 98 98 99 98 97 95 95 95 94 92 94 96 97 99 102 104 103 101 100 100 100 100 102 101 100 100 101 101 101 101 102 100 96 95 98 100 100 99
30 32 38 46 54 53 44 38 41 47 49 44 39 40 42 41 45 53 54 55 56 57 58 64 70 71 69 68 69 73 79 84 84 86 89 88 86 87 88 91 92 93 95 98 100 99 99 99 99 100 100 100 100 101 102 102 98 93 93 94 96 99 102 104 103 101 99 99 99 98 99 100 99 99 99 100 101 101 101 99 95 95 99 102 101 101
Wind_Speed
1 3 4 3 4 2 3 4 4 4 2 3 3 2 1 2 1 1 1 3 2 4 1 1 2 3 7 8 9 9 9 10 11 10 10 9 9 8 8 8 7 7 6 5 6 7 6 6 5 4 4 3 3 4 4 6 8 9 10 11 12 13 14 14 14 13 12 12 12 13 13 13 13 13 13 13 14 15 16 20 22 22 24 27 29 30
1 4 5 3 3 2 2 1 1 3 3 3 3 1 1 1 3 0 2 2 0 3 1 2 4 7 8 8 9 10 10 12 12 12 12 11 10 9 9 9 8 6 6 6 7 7 7 7 6 5 5 4 4 4 4 5 7 8 9 10 11 12 13 13 14 12 10 10 11 11 12 12 12 12 11 12 13 14 15 17 19 20 23 25 26 27
3 4 3 2 2 2 3 2 2 4 4 2 2 2 1 1 4 2 4 2 1 2 1 1 5 9 7 8 10 11 12 11 11 12 11 11 11 10 10 9 8 8 7 7 8 7 8 8 7 6 6 5 4 5 5 5 6 7 7 9 10 11 12 11 13 12 9 10 10 10 11 11 11 11 11 11 11 12 14 15 16 17 21 23 23 24
4 4 3 2 2 4 4 3 2 3 2 1 1 1 1 3 4 1 3 1 3 2 2 3 6 9 6 7 9 12 12 10 10 11 11 11 11 11 10 9 8 9 8 8 8 8 8 8 8 8 7 6 5 5 5 5 5 5 6 7 8 9 10 10 11 12 11 11 11 10 10 10 9 10 10 9 10 12 14 14 14 15 18 20 21 22
6 4 3 2 2 3 4 3 2 2 1 2 2 2 2 3 4 4 3 6 4 3 2 5 7 6 5 6 7 9 11 12 11 11 13 13 13 12 11 11 11 10 10 9 9 9 9 9 9 9 8 8 7 7 7 5 4 5 5 6 7 8 8 9 10 12 12 10 10 10 10 10 10 10 10 10 11 13 13 13 13 16 18 18 18 19
7 3 1 5 4 2 2 2 0 3 1 1 1 2 3 5 5 7 6 5 4 3 3 2 6 2 4 6 7 6 9 12 11 12 15 14 13 13 12 13 13 12 11 11 11 11 10 11 10 11 11 10 10 9 7 6 5 5 5 5 6 7 7 8 9 11 11 9 9 10 10 11 11 11 11 11 12 13 13 12 14 16 16 17 17 16
4 3 1 4 5 3 3 2 1 2 2 1 2 2 2 5 6 7 4 3 3 2 2 1 5 3 2 6 7 7 9 12 11 13 16 14 13 13 13 13 13 12 12 12 13 14 14 13 13 13 13 12 11 10 8 7 6 5 5 5 6 6 6 7 9 9 9 9 8 9 9 10 11 11 12 12 12 13 13 12 13 14 14 16 17 15
4 5 4 4 5 4 2 2 2 2 3 1 3 1 3 4 6 5 5 5 3 3 2 4 3 5 5 3 3 4 7 10 12 14 16 15 15 15 14 14 14 13 13 12 12 14 16 16 15 15 14 13 12 10 9 9 7 6 6 5 5 6 5 6 9 8 8 8 8 9 9 9 11 11 12 13 13 13 13 13 13 13 13 13 14 15
2 4 5 5 4 2 1 2 2 2 2 3 3 2 2 3 4 4 5 4 2 3 4 5 3 4 6 2 4 3 6 9 12 15 15 16 16 16 16 16 16 15 14 14 13 14 16 16 15 15 14 13 12 11 10 10 8 7 7 6 6 6 5 6 9 8 7 7 8 9 9 10 11 12 12 13 13 13 13 14 14 13 13 12 11 12
1 0 3 3 2 1 2 3 1 1 1 3 2 2 2 2 2 3 3 2 1 4 4 4 3 4 6 3 4 4 5 8 10 11 12 13 14 15 15 16 16 15 14 15 16 17 18 17 16 15 13 13 13 12 12 11 10 8 7 6 6 6 6 6 8 8 7 7 8 9 10 11 12 12 12 13 14 14 14 14 14 14 13 13 12 11
2 1 1 1 1 2 2 2 1 2 2 2 3 3 3 3 2 2 2 1 3 4 2 4 1 3 5 5 3 4 4 5 6 6 7 10 11 13 13 14 14 14 13 14 16 18 19 17 16 14 13 14 13 12 12 13 11 9 8 8 7 7 7 7 7 8 8 8 8 9 10 11 12 12 13 14 14 15 15 15 15 14 13 13 13 13
3 2 2 1 1 1 2 2 2 0 1 1 3 3 3 3 3 3 3 2 4 3 3 4 1 4 6 5 4 4 4 5 6 6 7 9 11 11 11 12 12 12 13 13 13 15 17 17 16 15 14 14 14 13 14 14 12 10 9 9 8 8 7 7 7 8 8 8 9 10 10 11 12 12 13 14 15 15 15 15 15 15 15 15 14 14
3 2 1 1 1 1 2 2 3 2 3 3 3 3 4 3 2 3 2 2 4 1 4 4 2 5 8 8 10 9 8 9 9 8 8 10 11 11 11 11 11 10 12 12 12 12 14 16 16 16 15 14 14 14 15 15 13 11 10 10 10 10 9 8 8 8 9 9 10 10 11 12 12 13 13 14 15 15 15 15 15 16 16 16 15 15
2 2 3 3 2 1 3 3 1 2 3 3 2 2 3 3 2 3 2 2 4 1 4 3 2 5 7 7 11 13 10 9 9 9 9 10 11 11 11 10 10 10 11 11 11 11 12 16 17 16 15 14 14 14 15 15 14 12 11 11 11 11 10 9 9 9 9 10 10 10 11 12 12 13 14 14 15 15 15 15 15 16 16 17 17 17
2 2 3 4 2 2 3 1 2 0 1 1 1 1 3 2 2 4 3 3 5 5 2 4 1 5 5 1 3 7 5 3 4 6 8 9 10 9 8 9 9 10 10 10 11 11 14 18 18 17 16 15 15 15 15 15 15 14 12 12 12 12 11 10 10 10 10 11 11 11 11 12 12 13 14 15 15 15 15 15 16 17 18 18 18 18
3 2 2 3 2 1 2 1 1 0 2 2 1 2 2 1 2 1 1 1 2 5 4 4 3 6 3 6 7 7 5 5 6 7 7 9 10 8 8 9 9 9 9 10 10 11 15 19 18 17 17 16 15 16 16 16 16 15 14 13 13 13 13 12 11 11 11 11 11 11 12 12 13 13 14 15 15 15 16 16 17 19 19 19 19 19
2 1 4 3 2 3 1 1 0 2 1 2 1 2 1 2 2 1 1 1 1 4 4 2 5 5 2 8 7 3 5 9 9 10 11 11 10 9 9 10 10 10 10 10 11 11 15 18 18 18 18 17 16 16 17 17 17 16 15 14 13 14 13 13 13 12 12 12 12 12 12 12 13 14 14 15 15 16 17 17 19 19 19 19 20 21
1 1 3 2 3 4 2 1 2 2 2 1 2 3 4 1 1 1 1 1 2 5 4 2 9 8 2 3 2 1 6 9 9 10 11 11 10 10 11 11 11 11 11 11 12 12 15 17 18 19 18 17 17 17 18 18 17 17 15 14 15 15 15 15 14 13 13 13 12 12 12 12 13 14 15 15 15 16 17 19 19 19 19 20 21 21
1 2 2 1 1 4 1 1 1 2 1 2 1 4 2 2 2 2 1 3 2 5 5 4 8 9 5 4 5 7 9 9 8 9 9 10 11 11 11 12 12 12 10 10 11 11 13 16 18 19 19 17 17 18 18 17 17 16 16 15 16 17 17 16 15 14 14 13 13 12 12 13 13 14 15 15 16 17 17 19 19 19 20 21 20 20
1 2 1 1 0 1 2 4 4 3 4 2 3 4 0 2 3 1 0 2 3 4 6 4 6 7 5 6 7 10 10 8 8 8 8 11 12 10 10 10 10 10 10 10 10 10 12 16 18 19 19 18 17 17 17 17 17 17 17 17 17 17 17 17 16 15 15 14 13 13 13 14 14 14 16 16 17 17 17 19 20 21 20 20 19 19
2 2 2 2 1 2 3 3 3 4 5 4 5 4 2 1 1 2 2 1 1 4 5 3 7 9 4 5 7 11 10 8 8 8 9 10 10 10 9 9 9 9 10 10 10 10 12 15 17 18 18 17 16 15 15 16 17 17 17 17 18 18 18 18 17 16 15 14 13 14 14 14 15 15 16 17 17 17 18 19 20 19 19 19 19 19
2 2 2 2 3 5 3 2 1 2 2 3 4 5 5 4 2 3 5 1 1 3 3 2 8 11 4 3 5 9 9 8 8 9 10 10 10 10 9 10 10 10 10 10 10 9 11 13 15 16 16 15 14 15 16 17 17 17 18 18 18 19 18 18 17 16 15 14 14 14 15 15 15 15 16 17 18 19 19 19 19 19 19 20 20 20
0 1 2 4 4 2 2 3 2 1 1 2 3 3 4 3 4 6 5 2 2 2 0 1 5 11 10 5 5 8 8 8 7 8 10 11 10 9 9 10 10 10 10 10 9 9 10 13 14 15 15 14 14 15 17 18 18 18 18 18 18 19 19 18 17 16 15 14 14 15 15 15 16 16 17 18 20 20 19 19 19 19 20 20 20 20
2 1 3 5 3 2 3 3 2 1 1 3 3 3 5 3 3 4 2 1 2 3 3 3 5 10 13 6 3 6 5 6 8 8 10 11 9 9 10 10 10 10 10 10 9 9 11 13 13 13 13 14 15 16 17 18 18 18 18 18 18 19 20 19 18 16 15 14 15 15 16 16 16 17 19 20 20 19 18 19 19 20 20 21 21 21
3 2 1 4 5 1 2 2 2 2 3 5 3 5 7 3 4 1 1 2 4 7 8 8 7 11 12 3 1 5 5 7 11 9 9 10 10 11 11 10 10 10 10 11 10 10 11 12 12 13 14 14 15 16 17 18 18 18 18 18 18 19 19 19 18 16 15 15 16 16 17 17 17 19 21 20 19 18 18 18 19 20 22 22 21 19
3 1 3 4 6 5 5 4 2 1 3 4 3 5 9 7 7 4 2 3 6 6 6 8 8 13 16 12 11 13 9 11 15 12 9 10 12 12 11 10 10 9 11 12 11 11 11 12 13 14 15 15 16 16 17 18 18 19 19 18 18 19 19 18 17 15 15 15 16 17 17 17 18 20 21 19 18 17 18 19 20 22 23 21 19 17
1 1 6 9 8 8 10 8 2 4 3 4 4 7 9 8 9 5 2 4 6 2 4 10 12 15 20 20 19 18 16 17 18 14 10 10 11 11 11 11 10 10 11 12 11 11 12 12 13 15 16 16 16 17 18 18 18 18 18 18 18 18 18 18 16 15 14 15 16 18 17 17 18 21 20 18 18 18 18 20 21 22 21 18 17 17
2 3 6 10 13 14 14 11 1 3 6 4 5 8 9 8 9 9 10 10 4 1 9 16 16 17 20 20 18 18 19 20 19 15 11 10 11 11 12 12 12 12 12 12 11 12 13 13 13 14 16 17 17 18 18 18 18 18 18 18 18 17 17 16 15 14 14 16 17 18 17 17 18 20 18 17 17 17 18 20 21 19 17 16 16 18
2 4 3 5 11 12 13 14 6 4 8 5 6 13 12 9 11 13 18 16 7 6 15 18 18 21 21 20 20 21 21 20 19 17 15 15 15 15 14 13 13 13 14 13 13 13 13 13 12 13 16 17 17 18 18 18 18 17 16 16 16 16 16 15 14 14 15 16 17 18 17 16 15 16 16 16 17 18 19 20 18 15 15 16 17 20
2 3 1 1 8 11 12 14 10 6 6 4 9 17 15 13 15 16 18 19 14 15 21 22 23 24 22 20 22 23 21 19 17 16 16 17 17 16 15 14 13 14 14 13 13 13 12 13 13 14 16 16 17 18 18 18 17 16 16 15 15 15 15 13 13 14 15 17 18 17 16 14 14 15 16 17 18 19 20 18 15 14 15 17 19 20
3 2 2 2 5 8 7 5 2 2 4 6 11 17 17 17 16 15 16 16 13 16 22 24 23 20 18 20 21 20 18 17 17 17 17 17 16 14 13 13 14 14 13 13 13 12 11 12 12 14 16 17 18 19 18 17 16 15 15 14 14 14 13 12 13 14 16 17 17 15 14 13 14 16 17 18 18 18 18 16 14 15 16 17 19 19
4 2 1 1 5 5 2 2 1 3 5 9 13 18 19 15 12 12 13 12 11 13 17 17 15 13 14 15 15 16 18 19 20 19 17 15 14 12 12 14 14 14 13 12 11 11 11 12 12 13 15 18 19 18 17 16 15 14 14 13 13 12 12 12 13 15 16 16 15 14 14 15 16 17 17 17 18 17 16 15 15 15 17 18 18 16
3 3 1 1 5 4 3 2 2 3 6 7 7 10 11 10 10 12 12 11 12 11 10 9 10 11 12 13 14 18 20 20 20 19 16 14 12 11 12 13 14 13 12 12 11 11 12 12 13 15 17 17 18 18 17 15 14 13 12 12 11 11 11 12 13 15 15 15 14 15 16 16 17 17 17 16 16 16 14 14 14 15 18 18 15 13
3 2 1 1 4 4 3 5 7 7 6 4 1 2 3 6 9 12 14 11 10 10 10 11 11 13 14 15 17 18 19 20 20 19 17 13 11 11 13 14 14 13 12 12 12 12 12 12 14 15 16 16 16 16 14 13 12 11 10 10 10 10 11 12 13 14 14 14 14 15 17 17 17 16 16 16 16 15 15 14 15 16 17 15 13 12
5 3 2 1 2 4 4 6 8 6 2 1 2 1 1 5 6 9 16 13 9 12 16 16 16 18 18 18 17 17 19 21 20 19 16 13 11 11 13 14 14 13 12 11 12 12 11 12 14 14 14 15 15 14 12 11 10 10 9 9 9 10 11 13 13 13 14 14 15 16 17 16 15 15 15 16 15 15 15 15 15 16 16 14 13 13
5 4 2 1 1 3 3 1 4 7 8 4 0 2 2 1 0 6 15 11 5 8 13 14 16 19 18 18 17 16 18 18 16 14 13 13 13 12 12 13 12 12 12 11 12 12 11 12 14 14 13 13 13 12 11 10 9 8 8 8 10 12 13 13 13 13 14 15 16 17 16 14 14 14 15 16 15 15 15 14 15 16 15 12 12 13
5 4 2 2 2 2 3 4 5 9 11 4 3 3 1 1 3 4 10 11 6 6 10 12 15 17 16 16 18 16 13 11 12 12 9 10 11 11 11 12 12 12 12 12 12 11 11 11 11 13 12 11 11 11 9 8 7 7 8 9 11 13 13 12 13 14 15 16 16 16 14 13 13 15 15 15 15 15 14 14 15 15 12 11 11 12
3 2 2 3 2 1 2 5 4 7 7 1 3 1 2 2 1 1 5 11 8 5 6 9 13 16 16 18 21 18 11 9 12 13 12 10 7 7 9 10 11 12 13 12 11 10 10 10 9 10 11 10 10 9 7 6 6 7 8 10 11 12 11 12 14 14 15 17 17 14 13 12 13 14 14 14 14 14 14 14 14 13 10 9 11 12
2 1 1 3 3 2 2 3 3 5 5 1 2 2 3 3 2 1 6 9 4 5 12 16 19 22 21 22 23 17 11 10 11 12 15 14 9 8 9 10 10 12 12 12 12 10 10 10 9 9 10 9 9 9 8 7 7 8 9 11 11 10 11 13 14 14 15 17 15 13 13 12 13 13 13 14 14 14 14 14 13 12 10 9 10 11
2 1 2 5 5 4 4 3 4 5 5 2 1 2 3 3 2 3 8 8 9 16 21 22 24 25 23 21 19 13 11 12 12 14 17 14 8 8 9 9 11 12 11 12 12 11 10 9 9 9 10 10 10 9 8 8 7 9 11 11 10 10 12 14 15 15 16 15 13 13 13 13 12 12 13 14 14 13 14 13 12 11 11 11 10 10
2 2 3 4 5 4 5 5 5 5 3 3 4 1 4 4 2 4 9 10 15 21 22 21 24 24 21 19 16 11 12 14 15 18 20 16 13 12 11 11 11 12 11 11 10 10 9 10 10 10 10 11 10 8 9 9 8 10 13 12 12 14 17 17 17 16 16 13 11 12 12 12 12 13 15 15 14 14 14 14 13 14 14 12 10 10
2 2 2 2 3 3 3 4 5 5 2 2 2 3 5 2 5 7 10 15 18 21 22 22 22 20 18 18 15 13 16 18 19 20 19 17 16 14 12 12 11 10 11 11 10 9 9 9 9 10 10 10 9 9 9 9 10 12 14 15 16 19 20 20 19 19 18 14 12 12 12 13 15 16 17 16 15 14 15 15 17 19 18 14 11 13
3 3 2 3 3 1 1 2 3 4 0 4 2 1 4 2 8 10 13 17 20 20 20 19 18 18 18 17 16 17 18 18 19 19 18 17 16 13 11 12 11 11 10 9 9 10 10 8 8 9 9 9 8 9 10 10 12 14 16 17 19 21 20 20 21 21 20 17 16 16 17 18 19 20 19 16 15 15 16 17 18 19 17 15 13 14
4 3 2 2 3 3 2 3 2 3 2 4 2 4 5 6 9 11 12 15 16 17 16 15 16 17 16 15 15 16 16 16 16 17 16 16 15 13 11 11 11 11 10 8 8 10 10 9 8 7 8 8 8 9 10 11 13 14 16 18 20 20 20 20 21 20 20 19 19 19 19 20 20 20 19 17 16 16 17 18 19 17 13 10 10 11
2 1 2 2 3 3 4 5 3 5 6 2 3 6 11 12 12 12 14 15 14 14 13 12 14 15 15 15 15 14 14 14 15 16 16 15 14 13 12 12 11 11 10 9 9 9 10 9 7 6 6 7 8 9 10 11 13 15 17 19 20 19 19 20 20 20 20 20 20 20 20 20 20 20 20 19 17 17 17 16 15 13 10 8 9 10
1 1 0 1 2 4 6 6 6 7 8 8 9 10 12 13 12 13 15 15 14 13 12 11 12 14 14 14 13 12 13 14 15 15 15 14 14 14 13 13 13 11 10 10 10 11 10 8 7 6 5 6 8 9 10 12 14 17 19 20 19 19 19 20 21 21 21 20 20 20 21 21 20 19 18 18 18 18 17 14 11 9 9 9 9 9
1 1 2 2 2 4 5 6 9 11 11 12 14 14 13 14 14 14 13 12 12 13 13 12 13 14 14 14 14 14 15 15 15 15 14 13 13 13 13 13 14 14 12 11 11 11 8 6 5 5 5 6 8 10 12 14 16 18 19 19 19 19 19 20 20 21 21 21 21 19 17 17 18 16 14 14 14 15 14 13 11 9 8 9 9 9
2 1 1 2 2 5 9 11 16 18 15 10 9 9 11 14 16 15 12 11 12 13 12 12 13 12 12 13 14 15 16 15 14 14 13 12 11 11 11 13 14 15 15 13 11 10 6 4 5 6 6 8 9 12 15 17 18 19 19 19 19 19 19 20 21 21 22 22 20 17 14 14 15 15 12 11 10 10 10 11 10 9 9 9 9 9
0 1 1 3 4 6 8 10 15 19 15 9 8 11 13 14 14 13 12 12 12 12 13 13 13 13 13 13 13 14 15 15 15 15 14 11 10 11 13 15 16 16 15 13 10 7 5 5 6 7 8 10 12 15 17 18 19 19 19 19 19 19 19 20 21 21 22 21 18 16 14 14 14 13 12 11 10 10 11 12 10 9 9 8 8 9
1 2 3 5 5 6 8 10 12 14 13 12 16 20 20 17 16 14 14 14 13 14 14 15 16 16 16 15 14 13 13 13 14 14 12 11 11 13 16 17 16 16 15 11 8 6 6 6 8 9 10 11 14 16 17 18 19 20 19 19 19 18 18 19 19 17 17 16 14 13 12 12 11 11 11 10 10 9 10 12 13 12 11 9 9 9
2 4 5 6 7 8 11 13 11 9 11 15 19 21 19 17 15 14 14 15 15 15 16 15 16 17 17 17 18 16 12 13 14 14 12 11 13 16 17 16 15 15 13 10 8 8 8 9 9 11 11 11 13 15 17 18 19 20 19 18 18 17 18 18 17 14 12 12 12 12 11 11 11 11 10 9 9 8 7 8 10 11 12 12 12 11
Wind_Direction
312 88 80 71 71 35 6 2 27 57 92 128 136 119 50 309 354 144 138 57 303 267 186 139 292 235 212 208 202 200 205 219 227 226 225 224 221 221 223 224 225 228 226 219 228 237 239 242 247 256 263 279 293 308 328 342 354 358 0 2 2 3 5 4 1 358 356 357 356 354 354 355 356 358 3 7 8 8 6 6 7 6 5 5 6 5
294 87 82 65 73 38 10 357 48 83 114 136 157 197 190 265 330 185 155 70 65 259 186 144 271 260 225 210 202 199 208 220 224 223 225 224 223 226 227 229 230 229 227 226 232 233 231 237 241 245 252 260 279 298 316 331 344 349 354 358 358 359 1 1 0 356 350 351 349 345 345 342 343 347 351 355 357 360 360 359 0 0 0 2 2 2
72 87 99 77 93 122 101 101 95 102 122 158 181 226 240 356 324 264 162 96 48 273 270 140 280 275 233 207 207 207 215 225 226 226 230 229 229 231 228 231 233 233 233 231 233 232 230 235 237 241 247 250 265 285 297 313 330 339 346 352 354 355 357 358 359 356 343 340 339 333 333 333 331 334 338 341 345 351 353 351 351 352 353 354 356 358
95 101 100 96 160 157 125 95 117 127 129 114 68 292 324 11 341 281 150 48 349 304 312 309 284 276 239 206 215 218 221 231 233 233 239 238 238 238 236 238 236 237 240 238 237 234 232 236 237 241 246 250 259 269 276 291 310 325 334 342 349 351 355 356 355 353 342 333 332 328 327 324 321 324 328 332 338 343 344 344 344 343 343 345 348 350
86 86 82 128 139 130 131 126 188 220 151 99 37 17 348 342 312 282 298 324 311 204 224 300 284 261 218 206 224 217 215 230 234 234 239 238 239 242 245 244 240 241 243 243 244 240 238 242 244 248 249 249 250 253 259 269 287 302 315 330 343 345 348 353 350 347 342 334 331 329 328 326 324 326 329 333 336 339 338 338 338 336 336 336 338 340
85 87 155 155 136 118 152 112 5 273 220 160 116 59 338 313 294 283 296 313 289 214 158 305 292 261 159 205 229 202 204 226 228 230 238 237 234 236 240 241 239 239 239 240 244 245 246 248 250 252 250 245 244 247 250 252 267 284 298 315 332 338 338 344 343 341 340 336 332 333 333 331 329 327 330 334 333 333 333 332 332 332 331 329 328 330
90 101 143 148 152 177 186 124 128 272 289 193 128 93 307 284 271 270 260 236 273 285 137 209 281 284 201 220 222 200 213 227 224 228 236 235 233 232 233 237 236 234 235 235 238 242 244 246 248 249 248 244 243 245 245 247 257 266 280 301 319 326 327 334 338 339 338 333 329 331 330 326 326 323 324 328 327 327 326 325 327 327 326 325 323 323
107 127 135 138 166 187 190 123 119 266 294 60 102 357 278 253 251 243 219 225 273 320 212 201 255 279 267 236 170 187 224 233 231 231 234 233 232 231 231 233 232 232 232 232 235 237 238 241 243 244 246 246 244 244 242 243 249 253 267 287 303 311 313 324 331 332 332 329 324 323 321 320 321 319 319 322 322 322 322 321 323 323 322 321 320 320
123 161 164 176 192 192 126 94 106 256 299 65 78 322 277 232 239 217 214 236 272 301 248 186 183 264 268 213 125 171 235 241 238 234 231 229 227 229 230 231 231 231 230 231 234 237 237 239 242 244 246 247 245 242 240 238 242 249 260 274 287 297 301 313 322 323 320 320 317 315 315 317 318 316 317 319 318 318 319 319 319 318 318 316 316 318
157 154 177 203 212 109 97 104 112 275 16 75 114 117 120 149 181 190 222 241 203 264 257 167 167 265 278 253 160 177 239 242 237 233 229 227 224 224 226 228 229 228 228 229 232 236 238 240 243 246 246 247 246 242 238 236 240 245 248 258 271 284 294 301 308 309 305 307 310 309 311 312 314 314 314 315 315 316 316 315 316 315 314 313 312 312
103 62 202 218 13 61 110 124 84 7 30 95 178 177 163 171 167 186 223 227 227 248 212 129 145 277 286 280 222 195 221 220 216 222 219 218 220 221 222 225 225 223 223 225 228 233 236 239 242 243 244 247 247 241 235 233 234 239 241 248 262 274 283 288 290 293 292 295 300 301 305 307 308 310 311 312 313 314 314 312 313 312 311 309 308 308
157 187 185 111 64 83 130 165 138 48 282 222 224 241 248 207 186 206 197 187 245 260 136 116 347 270 251 267 254 208 193 203 215 223 220 217 217 215 217 220 220 220 221 221 224 229 232 233 235 236 240 246 244 236 231 229 229 235 240 243 253 262 267 271 274 278 280 284 291 294 298 301 303 304 305 307 309 310 310 310 310 310 309 307 304 305
183 169 126 111 101 130 208 191 151 176 225 248 249 249 265 255 215 237 227 204 252 280 128 133 333 262 240 260 267 252 226 218 219 222 228 228 223 217 213 215 216 216 218 219 220 225 226 227 229 232 238 242 239 234 230 227 227 233 239 240 246 254 255 258 263 266 268 274 282 289 293 296 298 299 299 302 304 305 306 306 308 308 306 306 304 302
183 136 165 183 136 145 216 228 207 189 209 242 257 266 277 299 314 277 285 280 275 295 144 150 340 274 250 263 259 255 252 231 217 219 230 235 231 225 216 214 214 213 215 217 217 220 221 223 226 229 236 240 239 239 234 227 227 232 238 239 244 251 249 250 256 259 262 269 277 284 288 291 293 295 296 298 300 301 302 302 304 305 303 301 302 300
230 223 178 176 139 147 184 294 345 42 162 171 43 317 280 294 299 283 300 291 293 315 199 160 218 237 219 2 251 250 280 272 230 226 233 241 238 233 226 221 218 216 216 216 215 217 220 222 224 226 233 237 240 242 237 228 227 232 239 243 245 249 248 247 251 256 260 267 275 281 284 287 287 289 291 294 297 297 298 300 300 300 299 298 297 298
248 267 96 83 26 134 161 90 12 239 181 119 84 268 259 311 294 280 353 324 314 315 263 191 229 227 230 314 281 248 256 244 236 235 234 242 238 230 233 230 225 222 219 217 216 219 222 223 224 225 230 235 238 241 236 229 228 232 240 245 245 247 247 246 249 254 259 265 272 279 284 286 283 284 287 288 292 293 295 298 298 297 295 295 295 296
245 240 109 103 84 80 57 99 66 304 270 132 184 223 90 24 312 205 108 74 134 272 264 214 261 252 264 295 274 218 253 246 233 231 230 236 232 224 231 232 228 225 220 219 218 219 223 223 222 223 227 232 235 236 234 230 230 234 242 247 247 247 245 244 248 253 258 263 270 277 283 286 284 283 284 286 288 292 294 295 295 295 293 292 294 295
272 232 132 128 114 98 28 61 90 2 320 245 218 135 113 101 289 230 246 234 193 254 265 244 272 268 214 276 298 146 257 249 232 228 228 234 232 227 234 233 229 228 226 227 227 226 226 225 224 225 225 228 232 236 237 234 232 236 241 247 251 249 245 247 250 252 257 262 268 276 281 284 284 282 282 284 287 290 293 294 293 293 292 292 292 292
263 253 137 79 112 119 123 233 152 97 33 313 128 123 127 235 221 168 235 270 250 265 274 260 278 272 211 217 269 257 250 244 235 229 224 232 230 227 235 235 232 234 233 233 233 231 229 227 227 227 224 225 231 236 238 236 235 238 241 245 249 249 247 248 249 250 255 259 264 271 277 281 281 281 281 283 287 289 291 293 294 293 292 291 290 289
178 262 177 110 39 95 175 222 218 153 114 90 140 148 56 294 262 238 254 282 261 267 282 294 300 281 209 183 229 250 254 243 232 230 226 230 228 223 229 231 230 231 229 231 232 230 229 227 227 227 224 225 230 234 235 235 235 238 243 246 246 245 245 245 245 248 252 256 263 269 273 277 276 277 280 283 286 288 290 292 293 292 291 290 289 289
148 235 253 125 142 243 211 202 223 187 150 153 174 181 175 160 264 281 249 224 246 264 268 277 283 273 215 159 213 246 259 244 227 236 241 235 229 226 229 232 232 230 228 229 230 231 230 228 227 226 224 225 230 234 233 233 235 240 245 246 245 245 245 245 245 247 251 256 263 268 270 272 273 275 279 282 285 287 290 293 291 289 289 288 289 290
165 196 245 183 197 223 203 92 5 272 196 184 199 198 192 174 171 249 250 199 156 255 244 242 274 271 249 150 219 248 262 258 238 236 247 249 240 234 235 236 237 235 233 231 230 231 230 227 226 222 219 221 228 232 231 232 236 242 245 246 247 246 245 246 246 247 251 257 262 267 269 269 272 275 278 281 286 288 290 291 290 290 289 288 288 289
167 177 245 245 238 209 92 78 66 314 267 226 247 213 177 174 194 230 250 228 179 217 239 275 266 271 274 259 238 252 263 270 259 240 249 258 252 244 244 242 240 237 238 238 236 235 232 229 225 219 218 223 229 233 234 234 238 242 246 247 248 247 245 246 247 247 251 258 263 267 268 270 272 275 279 283 285 287 288 288 291 292 290 287 288 287
181 191 243 264 260 128 112 118 121 102 176 205 229 190 185 199 198 231 260 19 251 214 194 222 241 269 281 276 238 265 279 280 270 247 247 259 261 256 253 248 243 239 240 242 239 237 234 230 225 220 223 229 232 234 235 237 241 244 247 250 249 249 249 247 246 248 252 258 265 267 269 271 274 277 281 284 284 284 285 288 291 293 291 289 287 284
195 195 196 281 290 248 174 179 185 189 193 221 219 178 201 194 98 93 202 131 259 242 220 235 251 263 274 284 210 265 263 264 266 247 234 251 262 263 260 251 243 241 244 245 239 235 233 228 224 225 228 231 234 236 238 241 245 247 251 253 252 252 251 247 245 247 253 261 267 270 270 271 274 279 282 283 282 281 284 288 290 292 292 290 285 281
207 206 182 245 282 283 280 292 299 160 170 202 210 195 209 188 150 182 232 197 237 242 217 230 247 259 272 285 286 280 270 268 273 261 233 240 253 258 259 255 247 244 248 246 240 236 233 229 227 228 231 234 236 239 242 245 247 251 255 255 254 253 250 246 243 246 254 263 270 272 271 269 273 279 281 281 280 282 285 288 290 291 291 286 280 278
157 250 227 237 250 251 266 283 63 108 185 185 177 209 214 195 183 193 235 225 224 222 237 243 248 263 275 281 283 286 285 282 284 280 259 252 255 253 254 255 251 248 251 249 243 240 239 235 232 232 233 235 237 239 241 244 248 252 256 257 254 250 246 243 244 247 255 264 271 272 269 266 272 278 280 279 280 282 285 288 290 290 286 279 275 278
140 244 233 237 245 249 267 283 92 131 253 219 175 227 223 190 184 195 219 227 202 53 264 255 257 266 274 279 282 286 287 288 294 296 292 286 279 270 265 260 253 251 252 249 244 242 242 240 238 236 235 235 236 238 239 242 247 250 254 257 254 247 241 241 244 250 260 268 270 270 267 267 273 277 276 275 277 280 285 288 287 284 278 274 276 282
196 258 221 220 250 256 269 279 273 251 260 225 215 249 240 195 184 201 226 231 202 222 255 263 274 276 278 284 287 286 288 293 299 300 299 294 284 278 272 264 256 255 253 247 244 241 239 242 241 236 235 234 234 237 240 243 247 249 250 250 249 244 239 239 245 255 265 269 268 267 267 268 270 272 272 274 277 282 286 286 280 273 272 275 280 286
222 250 155 179 268 267 262 268 271 261 253 226 233 249 248 230 212 210 230 238 228 238 256 268 275 275 277 282 283 284 289 295 295 293 290 285 279 276 271 265 259 257 253 247 246 243 238 240 242 239 238 237 236 238 242 244 247 248 247 245 243 239 237 241 252 262 266 268 268 266 265 265 269 273 275 278 280 283 285 281 271 268 273 278 284 288
226 251 83 92 280 271 249 256 277 211 227 246 248 249 247 244 237 231 238 243 241 246 255 262 270 273 274 275 277 283 290 292 287 285 282 278 275 272 268 266 261 256 255 251 246 244 241 239 241 241 239 237 237 238 239 242 246 246 245 243 239 237 242 251 260 267 269 268 266 263 263 267 273 276 278 279 280 281 281 276 270 271 276 283 287 284
198 251 71 98 282 276 149 119 124 164 221 244 251 253 247 237 235 238 234 224 220 237 253 262 268 269 268 274 283 288 289 287 285 286 285 279 272 266 263 266 264 257 255 253 247 243 242 239 237 237 235 233 234 235 236 238 241 239 238 237 237 242 251 257 263 267 267 263 260 260 266 272 276 276 277 279 279 278 277 273 271 275 281 285 284 276
185 232 187 126 280 274 100 90 238 230 257 256 243 244 241 230 226 235 241 225 206 219 252 257 250 257 274 289 292 288 287 288 287 291 294 289 280 272 265 265 266 264 259 255 253 248 243 239 236 233 232 231 231 232 234 235 234 234 233 233 239 247 254 259 264 264 259 255 256 262 270 274 275 275 275 277 278 276 272 271 271 278 284 283 275 266
170 214 204 137 273 273 32 350 291 269 276 294 313 187 229 264 254 248 262 254 203 199 231 245 257 274 283 283 280 281 284 284 284 289 294 293 285 281 276 272 270 269 264 257 253 249 244 240 237 234 231 230 230 232 234 231 229 229 229 233 244 251 255 259 259 253 251 254 260 267 273 274 272 272 274 277 277 274 270 268 272 280 283 277 266 264
160 186 198 149 261 281 346 343 304 284 267 241 258 203 247 276 261 260 273 265 207 209 237 251 264 271 272 274 275 277 279 282 285 289 290 285 278 274 274 274 269 264 262 258 250 246 242 238 234 232 229 229 230 229 227 221 218 222 227 236 247 253 254 254 249 247 253 259 265 271 273 270 268 271 275 277 275 272 269 268 274 281 280 269 263 269
153 165 183 151 228 280 319 307 268 302 323 323 319 82 90 207 31 306 290 278 203 220 245 251 258 263 268 274 276 278 283 289 291 287 278 269 263 258 256 261 262 258 256 255 252 251 247 238 233 232 228 226 227 222 217 215 214 220 233 242 253 256 253 249 247 251 258 263 268 272 269 265 267 272 276 277 273 269 268 269 274 279 275 265 266 274
151 152 181 200 205 243 279 255 261 303 316 330 98 76 38 316 22 342 298 298 307 271 248 242 257 270 276 281 288 295 298 299 295 292 284 262 252 251 251 252 258 262 263 265 267 268 265 251 240 236 228 221 221 217 211 214 217 228 243 250 255 255 250 248 252 258 264 269 271 269 262 260 269 274 275 274 269 267 267 270 275 275 269 263 269 276
168 191 193 206 211 165 263 280 290 297 299 68 121 186 227 243 265 107 285 293 297 275 257 265 281 294 299 304 310 314 313 303 297 305 317 314 298 289 278 268 268 271 275 279 277 271 265 255 239 229 221 213 217 218 215 221 228 238 248 248 249 248 246 251 258 264 270 274 273 266 259 263 271 273 272 269 266 267 267 270 273 271 265 266 273 276
139 348 152 218 255 188 208 262 255 257 280 21 121 201 184 209 235 252 284 286 312 349 329 320 314 314 316 317 318 319 316 305 297 306 321 329 335 327 308 297 292 284 279 278 274 265 258 247 228 216 212 210 216 222 226 237 241 241 245 247 247 248 250 257 264 270 275 277 273 265 265 271 273 270 268 266 264 265 267 269 270 267 266 270 274 276
129 107 166 218 241 203 193 249 256 246 259 292 272 224 152 172 226 288 288 300 346 341 329 324 319 318 320 318 316 316 308 301 301 309 317 323 327 318 307 301 298 292 283 276 271 266 255 237 219 208 208 214 220 227 240 252 248 240 245 251 252 252 259 267 274 280 280 276 269 265 269 275 273 267 265 264 264 265 267 267 266 265 271 276 276 276
139 164 185 225 245 218 201 235 267 267 252 270 288 227 144 169 237 292 296 315 332 326 320 319 317 317 318 314 312 308 301 303 306 310 315 319 318 314 310 302 294 288 284 279 271 262 249 234 224 219 219 225 230 239 255 257 245 243 251 257 259 264 273 282 287 286 281 273 265 265 270 274 273 268 266 268 270 268 265 267 271 275 278 278 275 275
150 163 183 219 238 223 204 232 274 292 259 221 248 152 148 226 297 303 305 313 316 315 316 316 314 314 315 312 309 308 309 312 313 314 318 320 317 316 316 310 299 286 281 280 272 260 249 238 233 229 227 232 239 250 261 254 245 251 258 262 267 275 285 292 293 289 284 276 266 265 269 274 276 273 271 273 273 267 265 272 279 281 280 278 277 281
163 173 194 187 182 171 171 219 272 310 195 160 176 152 155 249 304 308 308 309 311 313 316 315 313 316 319 316 316 316 315 316 316 316 318 317 316 318 316 309 301 292 284 277 269 264 257 246 239 233 230 236 247 258 261 254 251 259 263 265 274 283 292 295 294 291 287 280 272 270 275 281 282 279 276 275 270 264 269 278 280 278 277 277 279 285
174 189 248 224 176 164 198 205 222 342 18 154 199 284 269 269 291 298 300 304 309 313 316 315 317 323 326 325 320 316 314 314 314 315 316 315 316 318 315 310 305 299 294 288 279 273 264 252 243 236 234 242 252 260 262 260 261 265 266 271 281 290 295 296 295 291 286 281 276 275 278 282 283 279 276 275 271 267 275 281 276 271 270 268 271 280
184 186 276 249 193 213 257 262 287 327 326 274 232 267 278 284 292 301 307 309 311 316 322 323 324 327 328 324 317 312 312 312 312 313 314 315 316 319 319 318 313 307 302 297 293 286 274 259 245 236 235 244 255 266 273 275 274 273 274 280 288 294 296 297 294 289 285 281 278 277 279 282 281 277 275 275 273 272 276 275 267 261 257 257 263 273
47 70 230 245 272 274 264 262 274 291 300 300 291 283 286 295 308 320 320 317 318 324 329 329 326 326 325 320 316 311 310 312 313 313 315 317 319 322 325 324 322 320 311 302 300 296 283 264 246 238 240 251 266 280 290 293 289 285 287 292 296 296 297 297 292 287 284 281 278 279 281 282 280 276 274 274 273 273 272 262 250 247 249 255 262 269
103 134 237 256 311 318 295 285 293 299 302 304 302 302 309 318 326 330 326 322 324 327 326 325 324 321 319 319 316 311 310 314 315 315 317 321 322 325 329 330 330 329 322 315 310 302 286 259 248 254 260 269 281 295 304 305 303 301 301 301 300 299 299 296 290 286 284 282 281 281 279 277 276 273 270 269 267 268 264 251 240 240 244 247 256 266
114 146 275 274 268 284 284 290 302 306 302 292 289 304 323 328 328 329 331 330 328 325 322 322 321 318 318 319 318 315 315 317 319 320 322 325 326 328 331 332 333 333 330 327 321 308 289 266 268 279 286 290 296 306 310 311 310 311 310 306 303 302 300 294 289 286 284 283 282 279 274 272 273 271 268 266 261 257 251 240 232 234 237 240 248 260
133 166 309 298 276 273 278 296 314 317 310 301 310 325 331 331 330 333 336 334 330 327 325 324 322 323 323 321 321 320 318 318 324 327 328 329 331 333 335 337 338 338 336 335 330 317 301 294 300 304 302 302 308 313 314 313 313 313 312 308 306 304 300 295 291 288 286 285 281 277 274 272 271 267 265 265 263 257 252 246 240 237 238 242 249 253
358 352 340 320 312 309 306 316 329 325 311 311 324 330 333 337 340 342 341 339 337 335 333 329 327 327 327 326 328 327 321 324 332 334 333 334 338 339 339 340 340 339 339 340 339 331 323 320 320 318 313 311 315 317 314 313 314 315 314 311 309 307 302 298 293 288 285 282 277 274 274 273 270 266 263 263 261 256 255 257 259 256 249 246 251 255
27 11 354 330 308 295 297 310 324 318 300 306 318 325 329 336 342 342 339 338 337 336 334 331 327 325 325 328 332 334 332 335 339 340 340 340 340 340 342 342 339 338 339 342 343 337 334 333 329 324 321 318 317 316 314 313 314 316 318 317 315 311 306 301 295 286 281 279 277 276 277 275 273 271 267 262 257 250 250 260 264 262 255 251 255 261